SHT5X EGAC-EGLL

Flight info

Callsign SHT5X
Flight time 0h 54m
Altitude 25000
Route DUFFY L10 RINGA Q39 ETIGA/N0403F330 DCT INKOB Q39 NOMSU UQ4 WAL UY53 NUGRA
Aircraft A20N/M-SDE2E3FGHIRWXY/LB1

Departure

Time 2026-04-22 18:56
Airport George Best Belfast City Airport (EGAC)

Arrival

Time 2026-04-22 19:51
Airport London Heathrow Airport (EGLL)
Time Latitude Longitude Altitude Speed Heading
2026-04-22 18:26 54.61462 -5.87188 24 ft 0 kts 155°
2026-04-22 18:47 54.61462 -5.87189 23 ft 0 kts 155°
2026-04-22 18:49 54.61484 -5.87206 26 ft 4 kts 159°
2026-04-22 18:49 54.61510 -5.87220 26 ft 4 kts 171°
2026-04-22 18:50 54.61535 -5.87219 26 ft 3 kts 213°
2026-04-22 18:50 54.61538 -5.87215 26 ft 0 kts 217°
2026-04-22 18:53 54.61537 -5.87217 23 ft 2 kts 217°
2026-04-22 18:53 54.61515 -5.87246 24 ft 6 kts 217°
2026-04-22 18:53 54.61464 -5.87307 23 ft 11 kts 214°
2026-04-22 18:53 54.61395 -5.87415 23 ft 15 kts 230°
2026-04-22 18:54 54.61301 -5.87547 23 ft 20 kts 214°
2026-04-22 18:54 54.61178 -5.87689 22 ft 20 kts 214°
2026-04-22 18:54 54.61100 -5.87782 26 ft 9 kts 215°
2026-04-22 18:54 54.61075 -5.87856 25 ft 7 kts 284°
2026-04-22 18:55 54.61101 -5.87958 24 ft 12 kts 302°
2026-04-22 18:55 54.61148 -5.88016 22 ft 6 kts 347°
2026-04-22 18:55 54.61196 -5.87983 23 ft 9 kts 34°
2026-04-22 18:55 54.61219 -5.87956 22 ft 3 kts 35°
2026-04-22 18:56 54.61332 -5.87816 21 ft 56 kts 35°
2026-04-22 18:56 54.61861 -5.87191 25 ft 125 kts 34°
2026-04-22 18:56 54.62730 -5.86198 311 ft 163 kts 39°
2026-04-22 18:56 54.63643 -5.85074 1356 ft 156 kts 41°
2026-04-22 18:57 54.64532 -5.84028 2198 ft 160 kts 43°
2026-04-22 18:57 54.65505 -5.82852 2705 ft 180 kts 43°
2026-04-22 18:57 54.66418 -5.81291 3129 ft 193 kts 66°
2026-04-22 18:57 54.66817 -5.79023 3565 ft 205 kts 94°
2026-04-22 18:58 54.66427 -5.76591 3999 ft 222 kts 124°
2026-04-22 18:58 54.65245 -5.74780 4481 ft 239 kts 154°
2026-04-22 18:58 54.63583 -5.74276 5259 ft 249 kts 183°
2026-04-22 18:58 54.61913 -5.75209 6012 ft 259 kts 205°
2026-04-22 18:59 54.60373 -5.76901 6705 ft 267 kts 211°
2026-04-22 18:59 54.58837 -5.78731 7385 ft 269 kts 210°
2026-04-22 18:59 54.57259 -5.80488 8072 ft 270 kts 207°
2026-04-22 18:59 54.55642 -5.82148 8727 ft 272 kts 205°
2026-04-22 19:00 54.53916 -5.83413 9319 ft 268 kts 187°
2026-04-22 19:00 54.52076 -5.83447 9903 ft 265 kts 166°
2026-04-22 19:00 54.50356 -5.82287 10277 ft 272 kts 146°
2026-04-22 19:00 54.48975 -5.79982 10403 ft 287 kts 126°
2026-04-22 19:01 54.47827 -5.77062 10526 ft 301 kts 125°
2026-04-22 19:01 54.46637 -5.74026 10678 ft 311 kts 126°
2026-04-22 19:01 54.45411 -5.70927 11014 ft 314 kts 126°
2026-04-22 19:01 54.44172 -5.67820 11378 ft 316 kts 126°
2026-04-22 19:02 54.42919 -5.64697 11700 ft 318 kts 126°
2026-04-22 19:02 54.41655 -5.61561 12010 ft 320 kts 127°
2026-04-22 19:02 54.40381 -5.58406 12319 ft 322 kts 127°
2026-04-22 19:02 54.39107 -5.55254 12594 ft 324 kts 127°
2026-04-22 19:03 54.37810 -5.52049 12890 ft 326 kts 127°
2026-04-22 19:03 54.36511 -5.48843 13177 ft 328 kts 127°
2026-04-22 19:03 54.35207 -5.45627 13465 ft 329 kts 127°
2026-04-22 19:03 54.33894 -5.42395 13739 ft 331 kts 127°
2026-04-22 19:04 54.32575 -5.39152 14023 ft 332 kts 128°
2026-04-22 19:04 54.31268 -5.35942 14283 ft 334 kts 128°
2026-04-22 19:04 54.29913 -5.32620 14510 ft 336 kts 128°
2026-04-22 19:04 54.28605 -5.29417 14724 ft 337 kts 127°
2026-04-22 19:05 54.27182 -5.26117 14919 ft 338 kts 131°
2026-04-22 19:05 54.25693 -5.23038 15104 ft 339 kts 131°
2026-04-22 19:05 54.24169 -5.19871 15281 ft 341 kts 131°
2026-04-22 19:05 54.22682 -5.16775 15437 ft 342 kts 131°
2026-04-22 19:06 54.21167 -5.13625 15583 ft 343 kts 131°
2026-04-22 19:06 54.19646 -5.10466 15729 ft 345 kts 131°
2026-04-22 19:06 54.18123 -5.07310 15861 ft 346 kts 131°
2026-04-22 19:07 54.15053 -5.00956 16113 ft 347 kts 131°
2026-04-22 19:07 54.13492 -4.97732 16241 ft 348 kts 131°
2026-04-22 19:07 54.11967 -4.94588 16342 ft 349 kts 131°
2026-04-22 19:07 54.10421 -4.91402 16441 ft 349 kts 131°
2026-04-22 19:08 54.08872 -4.88215 16555 ft 350 kts 131°
2026-04-22 19:08 54.07317 -4.85019 16656 ft 350 kts 131°
2026-04-22 19:08 54.05758 -4.81820 16756 ft 351 kts 131°
2026-04-22 19:08 54.04206 -4.78637 16745 ft 349 kts 131°
2026-04-22 19:09 54.02693 -4.75376 16792 ft 352 kts 129°
2026-04-22 19:09 54.01225 -4.72039 17015 ft 354 kts 128°
2026-04-22 19:09 54.00231 -4.69764 17231 ft 355 kts 128°
2026-04-22 19:09 53.98261 -4.65281 17798 ft 359 kts 129°
2026-04-22 19:10 53.96753 -4.61881 18350 ft 362 kts 129°
2026-04-22 19:10 53.95228 -4.58464 18957 ft 366 kts 129°
2026-04-22 19:10 53.93682 -4.55009 19625 ft 370 kts 129°
2026-04-22 19:10 53.92112 -4.51510 20323 ft 374 kts 129°
2026-04-22 19:11 53.90517 -4.47960 20978 ft 380 kts 129°
2026-04-22 19:11 53.88902 -4.44369 21635 ft 385 kts 129°
2026-04-22 19:11 53.87260 -4.40729 22304 ft 389 kts 129°
2026-04-22 19:11 53.85641 -4.37020 22923 ft 396 kts 127°
2026-04-22 19:12 53.84071 -4.33157 23542 ft 401 kts 126°
2026-04-22 19:12 53.82496 -4.29217 24142 ft 406 kts 126°
2026-04-22 19:12 53.80899 -4.25248 24668 ft 410 kts 127°
2026-04-22 19:12 53.79272 -4.21242 25149 ft 415 kts 127°
2026-04-22 19:13 53.77626 -4.17217 25323 ft 417 kts 127°
2026-04-22 19:13 53.75978 -4.13200 25362 ft 417 kts 127°
2026-04-22 19:13 53.74319 -4.09175 25360 ft 417 kts 127°
2026-04-22 19:13 53.72660 -4.05159 25359 ft 417 kts 127°
2026-04-22 19:14 53.70992 -4.01129 25572 ft 421 kts 127°
2026-04-22 19:14 53.69306 -3.97061 26166 ft 423 kts 127°
2026-04-22 19:14 53.67614 -3.92975 26661 ft 427 kts 127°
2026-04-22 19:14 53.65900 -3.88847 27143 ft 431 kts 127°
2026-04-22 19:15 53.64757 -3.86102 27453 ft 434 kts 127°
2026-04-22 19:15 53.62421 -3.80500 28066 ft 439 kts 127°
2026-04-22 19:15 53.60658 -3.76284 28518 ft 443 kts 127°
2026-04-22 19:15 53.58872 -3.72018 28931 ft 447 kts 128°
2026-04-22 19:16 53.57071 -3.67722 29389 ft 450 kts 128°
2026-04-22 19:16 53.55259 -3.63407 29787 ft 454 kts 128°
2026-04-22 19:16 53.53434 -3.59071 30181 ft 457 kts 128°
2026-04-22 19:16 53.51584 -3.54681 30574 ft 460 kts 128°
2026-04-22 19:17 53.49726 -3.50280 30917 ft 464 kts 128°
2026-04-22 19:17 53.47871 -3.45839 31256 ft 468 kts 125°
2026-04-22 19:17 53.46247 -3.41069 31647 ft 472 kts 117°
2026-04-22 19:17 53.44930 -3.36020 32087 ft 473 kts 114°
2026-04-22 19:18 53.43650 -3.30924 32334 ft 472 kts 114°
2026-04-22 19:18 53.41090 -3.20846 32389 ft 471 kts 114°
2026-04-22 19:19 53.38096 -3.11016 32394 ft 470 kts 125°
2026-04-22 19:19 53.34247 -3.02295 32399 ft 469 kts 129°
2026-04-22 19:20 53.30325 -2.93522 32400 ft 470 kts 128°
2026-04-22 19:20 53.26402 -2.84754 32399 ft 470 kts 128°
2026-04-22 19:21 53.22477 -2.76012 32401 ft 471 kts 128°
2026-04-22 19:21 53.18528 -2.67250 32404 ft 472 kts 128°
2026-04-22 19:22 53.14570 -2.58510 32388 ft 472 kts 128°
2026-04-22 19:22 53.10717 -2.49635 32392 ft 473 kts 125°
2026-04-22 19:23 53.07643 -2.41941 32394 ft 489 kts 124°
2026-04-22 19:23 53.03594 -2.32729 32391 ft 495 kts 134°
2026-04-22 19:24 52.98319 -2.25449 32393 ft 491 kts 150°
2026-04-22 19:24 52.92519 -2.19423 32395 ft 491 kts 149°
2026-04-22 19:25 52.86731 -2.13380 32390 ft 492 kts 149°
2026-04-22 19:25 52.80956 -2.07360 32369 ft 487 kts 149°
2026-04-22 19:25 52.78127 -2.04416 32231 ft 474 kts 149°
2026-04-22 19:26 52.75387 -2.01568 31842 ft 465 kts 149°
2026-04-22 19:26 52.72664 -1.98745 31097 ft 464 kts 149°
2026-04-22 19:26 52.69918 -1.95904 30362 ft 463 kts 150°
2026-04-22 19:26 52.67210 -1.93107 29670 ft 457 kts 149°
2026-04-22 19:27 52.64529 -1.90342 28988 ft 452 kts 149°
2026-04-22 19:27 52.61871 -1.87604 28308 ft 448 kts 149°
2026-04-22 19:27 52.59251 -1.84909 27657 ft 443 kts 149°
2026-04-22 19:27 52.56635 -1.82221 27016 ft 439 kts 149°
2026-04-22 19:28 52.54059 -1.79578 26378 ft 435 kts 149°
2026-04-22 19:28 52.51501 -1.76960 25747 ft 432 kts 149°
2026-04-22 19:28 52.48964 -1.74365 25191 ft 426 kts 148°
2026-04-22 19:28 52.46457 -1.71806 24618 ft 422 kts 148°
2026-04-22 19:29 52.43977 -1.69277 24078 ft 417 kts 148°
2026-04-22 19:29 52.41519 -1.66774 23459 ft 413 kts 148°
2026-04-22 19:29 52.39091 -1.64303 22826 ft 408 kts 148°
2026-04-22 19:29 52.36693 -1.61865 22219 ft 404 kts 148°
2026-04-22 19:30 52.35121 -1.60269 21841 ft 400 kts 148°
2026-04-22 19:30 52.31975 -1.57080 21069 ft 394 kts 148°
2026-04-22 19:30 52.29660 -1.54735 20540 ft 390 kts 148°
2026-04-22 19:30 52.27368 -1.52417 20006 ft 385 kts 147°
2026-04-22 19:31 52.25103 -1.50130 19462 ft 381 kts 147°
2026-04-22 19:31 52.22892 -1.47899 18943 ft 376 kts 147°
2026-04-22 19:31 52.20768 -1.45446 18358 ft 372 kts 140°
2026-04-22 19:31 52.18799 -1.42684 17803 ft 366 kts 139°
2026-04-22 19:32 52.16913 -1.40029 17280 ft 360 kts 139°
2026-04-22 19:32 52.15026 -1.37384 16747 ft 355 kts 139°
2026-04-22 19:32 52.13162 -1.34778 16199 ft 351 kts 139°
2026-04-22 19:32 52.11314 -1.32200 15663 ft 347 kts 139°
2026-04-22 19:33 52.09486 -1.29655 15100 ft 344 kts 139°
2026-04-22 19:33 52.07680 -1.27141 14581 ft 340 kts 139°
2026-04-22 19:33 52.05890 -1.24656 14051 ft 337 kts 139°
2026-04-22 19:33 52.04118 -1.22200 13567 ft 330 kts 139°
2026-04-22 19:34 52.02408 -1.19831 13374 ft 315 kts 139°
2026-04-22 19:34 52.00785 -1.17585 13354 ft 297 kts 139°
2026-04-22 19:34 51.99257 -1.15473 13352 ft 280 kts 139°
2026-04-22 19:34 51.97816 -1.13483 13352 ft 264 kts 139°
2026-04-22 19:35 51.96476 -1.11633 13350 ft 249 kts 139°
2026-04-22 19:35 51.95156 -1.09812 13357 ft 252 kts 139°
2026-04-22 19:35 51.93822 -1.07972 13351 ft 252 kts 139°
2026-04-22 19:35 51.92487 -1.06134 13352 ft 251 kts 139°
2026-04-22 19:36 51.91153 -1.04296 13350 ft 252 kts 139°
2026-04-22 19:36 51.89818 -1.02461 13353 ft 252 kts 139°
2026-04-22 19:36 51.88482 -1.00624 13256 ft 253 kts 139°
2026-04-22 19:36 51.87149 -0.98795 13083 ft 250 kts 139°
2026-04-22 19:37 51.85853 -0.96915 12907 ft 249 kts 133°
2026-04-22 19:37 51.84808 -0.94675 12686 ft 249 kts 121°
2026-04-22 19:37 51.84032 -0.92171 12363 ft 249 kts 116°
2026-04-22 19:37 51.83346 -0.89869 12084 ft 247 kts 117°
2026-04-22 19:38 51.81153 -0.82671 11133 ft 244 kts 117°
2026-04-22 19:38 51.80390 -0.80186 10809 ft 243 kts 117°
2026-04-22 19:39 51.79645 -0.77760 10499 ft 241 kts 117°
2026-04-22 19:39 51.78907 -0.75336 10180 ft 240 kts 116°
2026-04-22 19:39 51.78175 -0.72932 9854 ft 238 kts 116°
2026-04-22 19:39 51.77380 -0.70607 9552 ft 237 kts 130°
2026-04-22 19:40 51.76112 -0.68987 9262 ft 236 kts 147°
2026-04-22 19:40 51.74611 -0.67963 8922 ft 237 kts 170°
2026-04-22 19:40 51.72971 -0.67984 8569 ft 239 kts 181°
2026-04-22 19:40 51.71314 -0.68150 8388 ft 236 kts 181°
2026-04-22 19:41 51.69661 -0.68316 8359 ft 239 kts 181°
2026-04-22 19:41 51.68001 -0.68487 8353 ft 238 kts 181°
2026-04-22 19:41 51.66342 -0.68661 8357 ft 239 kts 181°
2026-04-22 19:41 51.64690 -0.68838 8355 ft 238 kts 181°
2026-04-22 19:42 51.63043 -0.69014 8345 ft 238 kts 181°
2026-04-22 19:42 51.61385 -0.69193 8352 ft 238 kts 181°
2026-04-22 19:42 51.59749 -0.69534 8181 ft 240 kts 195°
2026-04-22 19:42 51.58347 -0.70994 7873 ft 247 kts 225°
2026-04-22 19:43 51.56692 -0.75917 7221 ft 250 kts 240°
2026-04-22 19:43 51.55942 -0.78430 6929 ft 249 kts 241°
2026-04-22 19:43 51.55195 -0.80928 6608 ft 248 kts 240°
2026-04-22 19:44 51.54445 -0.83426 6288 ft 247 kts 240°
2026-04-22 19:44 51.53605 -0.85825 5825 ft 248 kts 225°
2026-04-22 19:44 51.52216 -0.87407 5222 ft 248 kts 195°
2026-04-22 19:44 51.50536 -0.87684 4605 ft 248 kts 166°
2026-04-22 19:45 51.49039 -0.86551 4382 ft 232 kts 136°
2026-04-22 19:45 51.48181 -0.84482 4290 ft 218 kts 109°
2026-04-22 19:45 51.47922 -0.82155 4204 ft 208 kts 99°
2026-04-22 19:45 51.47752 -0.79869 3991 ft 205 kts 96°
2026-04-22 19:46 51.47678 -0.77586 3719 ft 205 kts 94°
2026-04-22 19:46 51.47658 -0.75300 3445 ft 204 kts 92°
2026-04-22 19:46 51.47662 -0.73044 3160 ft 200 kts 91°
2026-04-22 19:46 51.47668 -0.70840 2886 ft 195 kts 91°
2026-04-22 19:47 51.47676 -0.68687 2626 ft 192 kts 91°
2026-04-22 19:47 51.47683 -0.66572 2362 ft 183 kts 90°
2026-04-22 19:47 51.47688 -0.65270 2194 ft 172 kts 90°
2026-04-22 19:47 51.47697 -0.62857 1891 ft 153 kts 90°
2026-04-22 19:48 51.47703 -0.61111 1685 ft 157 kts 90°
2026-04-22 19:48 51.47708 -0.59468 1511 ft 136 kts 89°
2026-04-22 19:48 51.47714 -0.58068 1318 ft 116 kts 89°
2026-04-22 19:48 51.47718 -0.56850 1149 ft 106 kts 88°
2026-04-22 19:49 51.47724 -0.55627 1006 ft 107 kts 88°
2026-04-22 19:49 51.47727 -0.54416 848 ft 108 kts 87°
2026-04-22 19:49 51.47731 -0.53192 700 ft 116 kts 89°
2026-04-22 19:49 51.47734 -0.51907 542 ft 116 kts 88°
2026-04-22 19:50 51.47737 -0.50602 355 ft 109 kts 87°
2026-04-22 19:50 51.47745 -0.49395 200 ft 109 kts 89°
2026-04-22 19:50 51.47750 -0.48186 117 ft 105 kts 87°
2026-04-22 19:50 51.47772 -0.47096 90 ft 86 kts 96°
2026-04-22 19:51 51.47762 -0.46297 87 ft 56 kts 90°
2026-04-22 19:51 51.47761 -0.45859 84 ft 32 kts 91°
2026-04-22 19:51 51.47759 -0.45598 87 ft 0 kts 93°
2026-04-22 19:51 51.47743 -0.45516 87 ft 19 kts 124°
2026-04-22 19:52 51.47622 -0.45468 86 ft 11 kts 182°
2026-04-22 19:52 51.47573 -0.45470 86 ft 1 kts 180°
2026-04-22 19:52 51.47570 -0.45470 86 ft 2 kts 180°
2026-04-22 19:53 51.47537 -0.45475 90 ft 6 kts 198°
2026-04-22 19:53 51.47509 -0.45554 90 ft 10 kts 264°
2026-04-22 19:53 51.47507 -0.45697 88 ft 15 kts 268°
2026-04-22 19:53 51.47516 -0.45895 88 ft 20 kts 275°
2026-04-22 19:54 51.47517 -0.46143 86 ft 24 kts 270°
2026-04-22 19:54 51.47515 -0.46395 86 ft 10 kts 270°
2026-04-22 19:54 51.47515 -0.46536 86 ft 15 kts 270°
2026-04-22 19:54 51.47510 -0.46704 88 ft 10 kts 256°
2026-04-22 19:55 51.47492 -0.46840 86 ft 15 kts 265°
2026-04-22 19:55 51.47491 -0.47034 86 ft 20 kts 269°
2026-04-22 19:55 51.47489 -0.47264 88 ft 16 kts 270°
2026-04-22 19:55 51.47490 -0.47470 86 ft 21 kts 269°
2026-04-22 19:56 51.47489 -0.47722 86 ft 18 kts 270°
2026-04-22 19:56 51.47488 -0.47949 87 ft 23 kts 269°
2026-04-22 19:56 51.47487 -0.48221 88 ft 20 kts 268°
2026-04-22 19:56 51.47487 -0.48427 89 ft 21 kts 270°
2026-04-22 19:57 51.47486 -0.48587 89 ft 4 kts 270°
2026-04-22 19:57 51.47486 -0.48665 89 ft 9 kts 270°
2026-04-22 19:57 51.47486 -0.48777 89 ft 10 kts 270°
2026-04-22 19:57 51.47471 -0.48829 90 ft 2 kts 194°
2026-04-22 19:58 51.47458 -0.48830 89 ft 2 kts 183°
2026-04-22 19:58 51.47444 -0.48831 87 ft 3 kts 181°
2026-04-22 19:58 51.47418 -0.48832 87 ft 4 kts 180°
2026-04-22 19:58 51.47411 -0.48832 87 ft 0 kts 179°
2026-04-22 19:59 51.47405 -0.48832 87 ft 0 kts 179°